Location: Bakov nad Jizerou
(50.4784°N, 14.9394°E)
Time: 16:29:07
(UTC+00:00)

Cosmos 2322 - Pass Details

Date: 26 October 2021
Orbit: 841 x 854 km, 71.0° (Epoch: 04 December)

Event Time Altitude Azimuth Distance (km) Brightness Sun altitude
Exits shadow 03:24:00 12° 331° (NNW) 2,322 5.8 -22.3°
Maximum altitude 03:29:18 88° 63° (ENE) 856 3.6 -21.5°
Drops below altitude 10° 03:34:59 10° 152° (SSE) 2,464 6.4 -20.6°
Sets 03:37:24 0° 152° (SSE) 3,393 7.1 -20.2°
